CAPE
0 0 0 0 0 0 0 0 0 0 0 0 0 0 0 0 0 0 0 0 0 0 0 0 0 0 0 0 0 0 0 0 0 0 0 0 0 0 0 0 0 0 0 0 0
0 0 0 0 0 0 0 0 0 0 0 0 0 0 0 0 0 0 0 0 0 0 0 0 0 0 0 0 0 0 0 0 0 0 0 0 0 0 0 0 0 0 0 0 0
0 0 0 0 0 0 0 0 0 0 0 0 0 0 0 0 0 0 0 0 0 0 0 0 0 0 0 0 0 0 0 0 0 0 0 0 0 0 0 0 0 0 0 0 0
0 0 0 0 0 0 0 0 0 0 0 0 0 0 0 0 0 0 0 0 0 0 0 0 0 0 0 0 0 0 0 0 0 0 0 0 0 0 0 0 0 0 0 0 0
0 0 0 0 0 0 0 0 0 0 0 0 0 0 0 0 0 0 0 0 0 0 0 0 0 0 0 0 0 0 0 0 0 0 0 0 0 0 0 0 0 0 0 0 0
0 0 0 0 0 0 0 0 0 0 0 0 0 0 0 0 0 0 0 0 0 0 0 0 0 0 0 0 0 0 0 0 0 0 0 0 0 0 0 0 0 0 0 0 0
0 0 0 0 0 0 0 0 0 0 0 0 0 0 0 0 0 0 0 0 0 0 0 0 0 0 0 0 0 0 0 0 0 0 0 0 0 0 0 0 0 0 0 0 0
0 0 0 0 0 0 0 0 0 0 0 0 0 0 0 0 0 0 0 0 0 0 0 0 0 0 0 0 0 0 0 0 0 0 0 0 0 0 0 0 0 0 0 0 0
0 0 0 0 0 0 0 0 0 0 0 0 0 0 0 0 0 0 0 0 0 0 0 0 0 0 0 0 0 0 0 0 0 0 0 0 0 0 0 0 0 0 0 0 0
0 0 0 0 0 0 0 0 0 0 0 0 0 0 0 0 0 0 0 0 0 0 0 0 0 0 0 0 0 0 0 0 0 0 0 0 0 0 0 0 0 0 0 0 0
0 0 0 0 0 0 0 0 0 0 0 0 0 0 0 0 0 0 0 0 0 0 0 0 0 0 0 0 0 0 0 0 0 0 0 0 0 0 0 0 0 0 0 0 0
0 0 0 0 0 0 0 0 0 0 0 0 0 0 0 0 0 0 0 0 0 0 0 0 0 0 0 0 0 0 0 0 0 0 0 0 0 0 0 0 0 0 0 0 0
0 0 0 0 0 0 0 0 0 0 0 0 0 0 0 0 0 0 0 0 0 0 0 0 0 0 0 0 0 0 0 0 0 0 0 0 0 0 0 0 0 0 0 0 0
0 0 0 0 0 0 0 0 0 0 0 0 0 0 0 0 0 0 0 0 0 0 0 0 0 0 0 0 0 0 0 0 0 0 0 0 0 0 0 0 0 0 0 0 0
0 0 0 0 0 0 0 0 0 0 0 0 0 0 0 0 0 0 0 0 0 0 0 0 0 0 0 0 0 0 0 0 0 0 0 0 0 0 0 0 0 0 0 0 0
0 0 0 0 0 0 0 0 0 0 0 0 0 0 0 0 0 0 0 0 0 0 0 0 0 0 0 0 0 0 0 0 0 0 0 0 0 0 0 0 0 0 0 0 0
0 0 0 0 0 0 0 1 0 0 0 0 0 0 0 0 0 0 0 0 0 0 0 0 0 0 0 0 0 0 0 0 0 0 0 0 0 0 0 0 0 0 0 0 0
0 0 0 0 0 0 7 14 2 0 1 0 0 0 0 0 0 0 0 0 0 0 0 0 0 0 0 0 0 0 0 0 0 0 0 0 0 0 0 0 0 0 0 0 0
0 0 0 0 0 0 8 3 1 0 0 0 0 0 0 0 0 0 0 0 0 0 0 0 0 0 0 0 0 0 0 0 0 0 0 0 0 0 0 0 0 0 0 0 0
0 0 0 0 0 13 6 2 0 0 1 0 0 4 0 0 3 0 0 0 0 0 0 0 0 0 0 0 0 0 0 0 0 0 0 0 0 0 0 0 0 0 0 0 0
0 0 0 1 17 14 1 1 0 0 1 14 26 17 12 23 24 16 8 0 0 0 0 0 4 0 0 0 0 0 0 0 0 0 6 2 0 0 0 0 0 0 0 0 0
0 0 0 20 1 6 0 0 0 0 0 14 21 10 10 1 9 1 1 5 11 12 13 0 7 0 0 0 0 0 0 0 0 0 0 0 0 0 0 0 0 0 0 0 0
0 0 0 33 0 1 3 0 10 5 7 8 0 0 0 4 15 1 0 0 0 0 7 0 9 7 0 0 0 0 0 0 0 0 0 0 0 0 0 0 0 0 0 0 0
0 0 0 14 4 0 1 0 0 0 0 3 2 6 0 0 0 3 8 3 2 9 1 1 0 2 0 0 2 0 0 0 1 0 0 0 0 0 0 0 0 0 0 0 0
0 0 0 0 0 0 6 0 0 0 0 0 0 1 9 6 2 1 0 0 0 0 0 1 1 0 1 2 0 1 0 0 0 0 0 0 0 0 0 0 0 0 0 0 0
0 0 0 0 0 0 0 0 0 0 0 0 0 0 0 0 0 0 0 0 0 0 0 1 0 0 0 0 0 0 0 0 0 0 0 0 0 0 0 0 0 0 0 0 0
0 0 0 0 0 0 0 0 0 0 0 0 0 0 0 0 0 0 0 0 0 0 0 0 0 0 0 0 0 0 0 0 0 0 0 0 0 0 0 0 0 0 0 0 0
CIN
0 0 0 0 0 0 0 0 0 0 0 0 0 0 0 0 0 0 0 0 0 0 0 0 0 0 0 0 0 0 0 0 0 0 0 0 0 0 0 0 0 0 0 0 0
0 0 0 0 0 0 0 0 0 0 0 0 0 0 0 0 0 0 0 0 0 0 0 0 0 0 0 0 0 0 0 0 0 0 0 0 0 0 0 0 0 0 0 0 0
0 0 0 0 0 0 0 0 0 0 0 0 0 0 0 0 0 0 0 0 0 0 0 0 0 0 0 0 0 0 0 0 0 0 0 0 0 0 0 0 0 0 0 0 0
0 0 0 0 0 0 0 0 0 0 0 0 0 0 0 0 0 0 0 0 0 0 0 0 0 0 0 0 0 0 0 0 0 0 0 0 0 0 0 0 0 0 0 0 0
0 0 0 0 0 0 0 0 0 0 0 0 0 0 0 0 0 0 0 0 0 0 0 0 0 0 0 0 0 0 0 0 0 0 0 0 0 0 0 0 0 0 0 0 0
0 0 0 0 0 0 0 0 0 0 0 0 0 0 0 0 0 0 0 0 0 0 0 0 0 0 0 0 0 0 0 0 0 0 0 0 0 0 0 0 0 0 0 0 0
0 0 0 0 0 0 0 0 0 0 0 0 0 0 0 0 0 0 0 0 0 0 0 0 0 0 0 0 0 0 0 0 0 0 0 0 0 0 0 0 0 0 0 0 0
0 0 0 0 0 0 0 0 0 0 0 0 0 0 0 0 0 0 0 0 0 0 0 0 0 0 0 0 0 0 0 0 0 0 0 0 0 0 0 0 0 0 0 0 0
0 0 0 0 0 0 0 0 0 0 0 0 0 0 0 0 0 0 0 0 0 0 0 0 0 0 0 0 0 0 0 0 0 0 0 0 0 0 0 0 0 0 0 0 0
0 0 0 0 0 0 0 0 0 0 0 0 0 0 0 0 0 0 0 0 0 0 0 0 0 0 0 0 0 0 0 0 0 0 0 0 0 0 0 0 0 0 0 0 0
0 0 0 0 0 0 0 0 0 0 0 0 0 0 0 0 0 0 0 0 0 0 0 0 0 0 0 0 0 0 0 0 0 0 0 0 0 0 0 0 0 0 0 0 0
0 0 0 0 0 0 0 0 0 0 0 0 0 0 0 0 0 0 0 0 0 0 0 0 0 0 0 0 0 0 0 0 0 0 0 0 0 0 0 0 0 0 0 0 0
0 0 0 0 0 0 0 0 0 0 0 0 0 0 0 0 0 0 0 0 0 0 0 0 0 0 0 0 0 0 0 0 0 0 0 0 0 0 0 0 0 0 0 0 0
0 0 0 0 0 0 0 0 0 0 0 0 0 0 0 0 0 0 0 0 0 0 0 0 0 0 0 0 0 0 0 0 0 0 0 0 0 0 0 0 0 0 0 0 0
0 0 0 0 0 -2 0 0 0 0 0 0 0 0 0 0 0 0 0 0 0 0 0 0 0 0 0 0 0 0 0 0 0 0 0 0 0 0 0 0 0 0 0 0 0
0 0 0 0 0 0 0 0 0 -5 0 0 0 0 0 0 0 0 0 0 0 0 0 0 0 0 0 0 0 0 0 0 0 0 0 0 0 0 0 0 0 0 0 0 0
0 0 0 0 0 0 0 -9 0 0 0 0 0 0 0 0 0 0 0 0 0 0 0 0 0 0 0 0 0 0 0 0 0 0 0 0 0 0 0 0 0 0 0 0 0
0 0 0 0 0 0 -8 -1 -2 -1 -2 0 0 0 0 0 0 0 0 0 0 0 0 0 0 0 0 0 0 0 0 0 0 0 0 0 0 0 0 0 0 0 0 0 0
0 0 0 0 0 0 -4 0 -0 -8 0 0 -0 0 0 0 0 0 0 0 0 0 0 0 0 0 0 0 0 0 0 0 0 0 0 0 0 0 0 0 0 0 0 0 0
0 0 0 0 0 -1 -1 0 -1 0 -2 -5 -0 -1 0 0 -3 -3 0 0 0 0 0 0 0 0 0 0 0 0 0 0 0 0 0 0 0 0 0 0 0 0 0 0 0
0 0 0 -2 -5 -5 0 -0 0 0 -1 -3 -1 -1 -1 -0 -3 -10 -22 0 0 0 0 -17 -48 0 0 0 0 0 0 0 0 0 -6 -5 -2 0 0 0 0 0 0 0 0
0 0 0 -0 -0 -0 -0 0 0 0 -7 -11 -3 -3 -1 -0 -1 -1 -0 -16 -13 -9 -6 -2 -26 -6 0 0 0 0 0 0 0 0 0 0 0 0 0 0 0 0 0 0 0
0 0 0 -1 0 -0 -1 0 -2 -1 -1 -2 0 -3 0 -4 -0 -1 -0 0 0 -1 -11 -1 -6 -0 -0 0 0 -1 0 0 0 0 0 0 0 0 0 0 0 0 0 0 0
0 0 0 -1 -7 -1 -1 0 0 0 0 -0 -1 -4 0 0 0 -0 -5 -3 -14 -21 -27 -18 0 -26 0 0 -1 0 0 0 0 0 0 0 0 0 0 0 0 0 0 0 0
0 0 0 0 -2 -0 0 0 0 0 0 0 0 -0 -4 -1 -5 -2 -0 0 0 0 0 -0 -2 0 -0 -0 0 0 0 0 0 0 0 0 0 0 0 0 0 0 0 0 0
0 0 0 0 0 0 0 0 0 0 0 0 0 0 0 -2 0 -0 0 0 0 0 0 0 -3 0 0 0 0 0 0 0 0 0 0 0 0 0 0 0 0 0 0 0 0
0 0 -0 0 0 0 0 0 0 0 0 0 0 0 0 0 0 0 0 0 0 0 0 0 0 0 0 0 0 0 0 0 0 0 0 0 0 0 0 0 0 0 0 0 0
Wind_Speed
22 23 23 23 24 24 24 24 24 25 25 25 26 26 27 27 23 16 11 11 10 6 10 10 12 12 13 14 14 13 16 16 18 17 19 17 19 16 16 17 18 15 14 17 19
23 24 24 25 25 25 26 26 26 26 26 26 27 27 27 27 20 15 12 12 10 6 7 8 10 11 14 14 14 14 16 18 14 16 19 20 19 21 20 20 20 18 16 16 19
25 25 26 26 27 27 28 28 28 29 28 28 28 28 28 23 26 16 16 10 8 6 9 11 11 12 15 15 14 14 17 18 18 17 19 22 22 20 21 20 19 20 22 18 15
26 27 27 28 29 29 30 30 31 31 30 29 29 29 27 20 27 15 16 11 8 9 10 11 12 14 16 16 15 19 17 18 21 20 23 25 25 24 16 13 24 18 19 19 15
26 27 28 29 30 30 31 32 32 32 31 30 28 28 22 23 21 19 17 12 9 9 10 12 13 16 19 18 18 17 22 21 18 18 21 27 21 16 16 15 17 18 15 10 10
27 27 28 29 31 32 33 34 34 34 33 30 28 26 22 28 19 14 13 11 10 9 11 11 15 15 22 21 18 24 27 28 26 22 24 25 21 23 15 23 19 25 16 13 11
27 28 29 30 32 33 35 36 37 37 35 28 23 22 25 19 21 17 16 18 15 14 16 15 15 17 20 26 23 26 33 37 25 31 24 24 25 17 18 29 28 21 22 24 13
27 28 29 31 32 34 37 38 38 34 31 25 19 21 28 23 20 20 20 21 18 17 17 16 15 20 23 23 28 30 31 37 34 27 26 23 22 21 33 29 24 23 25 30 22
27 28 29 31 33 35 37 38 31 27 25 18 21 23 31 21 23 21 18 20 18 18 18 16 17 21 22 26 33 29 33 29 39 26 28 24 31 31 33 34 23 30 37 23 23
26 28 29 31 33 36 38 31 24 24 22 22 22 27 25 26 22 20 19 14 20 17 20 20 21 23 23 26 36 35 34 34 34 36 31 33 30 30 41 49 39 40 38 32 34
26 27 28 30 33 35 33 27 30 29 26 29 28 28 29 24 21 23 20 18 19 22 25 23 26 27 24 23 32 36 37 41 39 38 46 55 45 39 54 38 39 38 40 48 38
26 27 29 30 31 32 27 27 28 29 42 33 31 32 32 28 34 27 19 24 24 27 23 28 31 26 27 28 30 33 40 44 43 39 40 48 63 57 34 27 20 30 45 41 40
28 28 28 29 30 25 26 27 25 26 39 40 32 33 32 27 33 31 20 25 28 29 27 31 31 26 28 32 35 35 39 43 45 43 40 49 51 33 35 32 31 21 32 36 34
25 26 26 27 26 25 27 25 24 25 43 41 32 28 24 21 27 24 19 24 27 33 29 34 32 31 32 34 30 41 33 37 40 41 41 35 54 38 35 32 34 34 28 24 27
24 24 25 22 24 25 23 22 22 26 44 28 25 21 21 22 23 25 19 23 32 31 29 34 32 30 31 30 25 35 30 32 34 37 41 38 41 40 33 31 24 28 24 25 27
24 24 20 23 22 22 20 21 26 31 38 29 24 27 26 24 25 24 24 21 22 29 30 34 29 29 30 28 26 27 32 35 36 37 47 39 37 37 29 26 23 30 32 40 36
25 24 21 19 23 17 19 24 33 36 27 29 27 26 29 28 26 26 28 29 31 36 35 32 31 29 27 31 27 27 32 42 45 42 46 35 42 41 26 32 35 40 40 31 26
26 25 22 20 16 16 22 28 39 31 31 28 31 33 36 34 40 40 39 43 30 30 39 43 46 28 24 27 33 31 30 39 49 53 54 46 52 47 36 34 39 31 25 25 31
29 28 26 25 17 17 26 40 41 35 32 35 36 41 45 38 34 38 40 41 39 31 40 42 48 35 32 31 30 35 37 34 44 44 52 50 54 57 46 27 20 24 32 37 37
29 29 29 19 10 19 32 45 41 36 36 38 48 39 49 43 42 39 40 36 35 29 26 32 46 39 36 34 34 35 32 40 38 49 55 53 56 54 42 42 40 40 41 40 38
26 30 26 15 12 23 40 40 40 36 37 40 44 47 46 46 41 41 40 35 35 41 37 36 42 48 38 37 37 36 44 43 46 48 59 62 55 45 43 39 39 38 38 39 41
24 31 21 10 24 28 38 32 31 36 33 35 36 41 46 48 52 50 50 49 46 41 44 40 45 57 58 50 48 53 53 50 54 55 53 56 59 47 39 37 39 40 40 40 42
26 26 19 16 35 36 34 35 33 36 35 35 39 37 39 46 50 46 48 39 37 40 43 39 47 60 57 47 37 40 38 38 42 41 50 57 51 32 36 40 42 45 44 44 44
24 31 25 24 28 33 38 43 42 35 38 35 38 38 44 47 43 49 48 38 35 35 33 35 43 47 53 53 49 57 51 45 47 55 59 53 52 53 53 53 48 48 46 44 45
25 30 26 33 35 34 34 38 41 40 33 35 38 39 40 46 46 46 42 40 36 36 35 34 53 52 53 49 47 50 52 54 57 55 60 62 63 58 50 49 47 46 43 44 46
28 29 28 32 31 34 33 39 43 44 41 47 43 44 42 46 46 55 46 45 45 39 40 38 52 48 55 50 48 54 55 57 59 59 59 58 61 43 39 40 41 42 40 44 48
22 22 26 32 32 35 37 37 38 35 34 33 35 40 42 39 34 34 35 36 38 42 42 42 45 49 60 52 54 65 60 58 57 55 52 59 47 37 40 40 41 44 44 46 48
Wind_Direction
327 326 326 324 323 319 317 316 317 321 323 321 322 323 322 320 338 356 1 4 11 61 22 24 7 6 1 355 356 359 344 340 343 347 348 354 350 356 357 347 343 347 343 342 343
321 321 321 321 320 319 317 317 318 320 324 326 328 328 330 332 348 347 358 357 6 54 10 2 350 354 344 345 346 340 334 334 344 342 338 339 338 337 338 337 333 335 334 334 333
319 319 320 320 320 320 319 318 318 318 319 322 324 326 328 341 332 347 353 19 37 30 356 346 348 339 329 333 331 333 322 329 327 326 329 329 330 333 332 331 331 330 332 334 330
318 318 319 319 318 318 318 318 317 318 319 320 322 323 327 338 317 349 348 358 4 354 347 341 336 327 324 319 323 316 315 319 326 326 324 321 324 322 321 290 324 323 326 327 324
317 318 318 319 319 318 317 318 317 317 318 320 322 323 328 321 318 328 333 340 344 337 327 325 321 320 316 322 321 311 315 316 316 319 317 317 309 264 271 287 316 320 317 279 293
315 317 317 317 317 316 315 314 313 312 312 315 318 320 320 309 327 338 343 344 336 331 323 322 321 318 318 317 314 318 314 314 317 315 315 312 305 318 295 319 316 319 310 301 291
313 314 314 315 314 312 309 307 306 307 309 315 319 319 310 302 319 322 322 318 316 313 310 309 312 313 319 315 318 317 311 308 314 313 312 317 311 296 302 318 316 315 318 320 295
312 314 314 314 314 313 311 309 309 313 315 317 320 317 306 317 320 313 311 311 314 313 312 314 313 307 308 316 312 311 312 308 312 319 319 314 291 267 316 316 316 315 315 316 307
313 314 315 316 316 315 313 312 318 323 326 330 319 313 306 322 314 315 314 310 314 314 315 317 312 306 310 306 307 309 305 306 308 316 315 306 309 314 316 315 305 265 265 292 290
314 315 315 316 316 316 314 321 325 324 326 325 320 310 310 310 317 319 319 319 313 313 311 308 307 300 304 301 298 303 305 307 308 313 311 307 297 304 270 303 267 267 265 264 309
312 315 317 318 319 318 322 323 315 312 315 307 307 303 309 316 317 312 317 312 311 306 298 301 294 290 291 289 303 302 302 302 305 309 303 295 303 307 294 286 265 264 265 292 309
310 313 315 318 319 321 326 320 318 315 302 305 300 297 298 304 299 302 309 301 298 293 297 298 288 291 302 301 298 298 299 300 305 308 305 304 285 295 305 267 289 260 281 303 299
306 309 312 315 318 322 321 321 327 324 307 303 305 301 301 297 294 295 295 300 295 291 289 286 296 303 295 295 297 297 297 300 301 308 307 304 300 310 316 316 316 315 312 304 298
309 311 313 314 314 316 316 326 329 329 303 306 308 312 318 314 304 313 305 299 295 293 291 294 297 293 294 294 294 294 300 301 302 306 306 313 299 310 316 317 317 314 316 320 320
317 315 315 320 315 316 320 330 336 326 298 313 318 330 327 316 319 322 322 310 296 295 295 294 299 298 295 296 299 298 305 303 304 302 305 304 305 309 313 316 323 337 332 329 329
317 317 321 317 316 317 324 327 326 307 292 308 320 319 318 320 317 319 319 321 317 306 298 294 301 296 296 302 299 304 303 303 301 301 294 300 297 303 310 316 319 330 327 320 319
317 316 317 319 313 327 325 317 304 291 307 306 312 318 315 313 316 319 316 312 309 306 304 305 299 298 297 296 301 300 300 298 294 292 292 304 296 292 300 308 313 316 316 324 329
315 313 312 313 318 321 313 303 290 294 293 305 306 304 298 307 302 301 301 298 300 302 301 298 293 297 298 297 299 295 292 290 292 291 290 297 287 293 301 307 315 316 322 332 327
308 303 301 303 303 306 300 287 288 294 298 298 300 296 296 299 298 300 296 295 297 296 291 294 290 297 293 296 296 296 286 295 291 289 288 288 289 294 299 302 331 326 321 318 320
305 302 300 308 298 297 286 283 289 293 296 296 291 293 293 296 296 297 297 301 300 304 301 298 295 299 297 296 292 288 296 292 291 289 287 287 288 285 294 304 307 309 311 314 318
303 299 307 310 298 288 282 288 294 296 294 294 292 291 293 294 295 296 293 298 298 298 298 296 293 292 295 292 290 291 291 290 290 283 283 286 284 289 299 304 305 307 311 315 316
301 295 312 304 289 291 286 295 300 298 303 298 299 294 293 293 291 291 290 290 297 296 290 291 292 286 286 289 289 287 286 285 283 285 282 280 280 294 299 305 306 307 312 315 315
296 299 311 298 287 285 293 295 298 298 299 299 296 297 298 295 294 293 295 302 302 297 294 298 288 288 291 291 294 289 295 292 292 292 286 283 287 301 305 308 307 306 308 311 314
301 294 298 291 294 292 291 292 292 301 298 298 297 299 296 294 294 294 296 303 304 300 299 300 291 288 286 289 293 288 291 295 293 286 288 287 294 298 300 300 304 305 306 308 311
300 293 297 292 290 291 292 296 296 297 301 303 300 299 301 297 298 297 300 302 304 304 303 296 287 288 289 292 294 292 291 289 288 289 288 291 292 295 298 300 301 304 305 306 309
295 296 298 295 296 295 294 294 293 296 297 296 295 298 298 294 295 294 297 297 296 300 297 298 291 292 289 292 294 291 290 290 290 291 290 291 291 299 301 304 303 304 306 306 308
307 306 300 296 296 293 294 295 298 304 305 306 306 303 300 301 303 302 301 299 296 297 296 294 293 294 289 293 294 288 289 291 292 291 292 290 295 300 301 302 303 304 304 307 308